Terug naar catalogus

COSMOS 1348 DEB

LostHEO
NORAD 35515·DEBRIS·🇷🇺 Russia

Gelanceerd Apr 7, 1982 vanaf Plesetsk Cosmodrome

Loading…

Volgende Passages (komende 24 uur)

TLE

VerouderdSource: Space-Track

Epoch: Jun 6, 2014, 11:22 UTC

1 35515U 82029N   14157.47362367 -.00000060  00000-0  00000+0 0  9992
2 35515  69.7663 242.9338 5130104 118.4337 261.0657  2.05421639 55997

Volg COSMOS 1348 DEB in realtime met AllMySat

Download on the App Store